Flag for Saint Vincent and Grenadines Weather past 2 weeks in Kingstown, Saint Vincent and Grenadines

Now
81 °F

Passing clouds.


Feels Like: 86 °F
Forecast: 83 / 86 °F
Wind: 6 mph from Southeast

Location: Hewanorra International Airport

Current Time: Oct 23, 2014 at 5:41:52 AM

Latest Report: Oct 23, 2014 at 5:00 AM


Visibility: N/A

Pressure: 29.86 "Hg

Humidity: 84%

Dew point: 75 °F

Location of KingstownLocation

Historic Weather in Kingstown — Graph

°F

Kingstown temperature yesterday

Maximum temperature yesterday: 88 °F (at 10:00 AM)
Minimum temperature yesterday: 81 °F (at 11:00 PM)
Average temperature yesterday: 84 °F

Past Weeks' High & Low Weather Summary

 TemperatureHumidityPressure
High88 °F (Oct 9, 10:00 AM)100% (Oct 10, 4:00 AM)30.01 "Hg (Oct 10, 4:00 AM)
Low70 °F (Oct 14, 10:00 AM)66% (Oct 10, 11:00 AM)29.80 "Hg (Oct 8, 3:00 PM)
Average82 °F82%29.90 "Hg
* Reported Oct 8 4:00 AM — Oct 23 4:00 AM, Kingstown, Weather by CustomWeather, © 2014

Note: Actual official high and low records may vary slightly from our data, if they occured in-between our weather recording intervals... More about our weather records

Advertising

Kingstown weather history for previous 24 hours

 ConditionsComfort  
Time TempWeatherWind HumidityBarometerVisibility
4:00 AM
Oct 23
82 °FPartly cloudy.18 mph84%29.86 "HgN/A
3:00 AM82 °FPartly cloudy.17 mph84%29.86 "HgN/A
2:00 AM82 °FPartly cloudy.17 mph84%29.86 "HgN/A
1:00 AM82 °FPartly cloudy.18 mph84%29.89 "HgN/A
12:00 AM82 °FPartly cloudy.17 mph89%29.89 "HgN/A
11:00 PM
Oct 22
81 °FLight rain. Partly cloudy.13 mph84%29.92 "HgN/A
10:00 PM82 °FPartly cloudy.12 mph84%29.89 "HgN/A
9:00 PM84 °FPassing clouds.13 mph79%29.89 "HgN/A
8:00 PM82 °FThunderstorms. Passing clouds.17 mph84%29.89 "HgN/A
7:00 PM82 °FPassing clouds.8 mph84%29.86 "HgN/A
5:00 PM82 °FBroken clouds.13 mph84%29.86 "HgN/A
4:00 PM84 °FScattered clouds.16 mph84%29.86 "HgN/A
3:00 PM84 °FPartly sunny.12 mph84%29.86 "HgN/A
2:00 PM86 °FScattered showers. Scattered clouds.16 mph75%29.86 "HgN/A
1:00 PM88 °FPassing clouds.16 mph70%29.89 "HgN/A
12:00 PM88 °FScattered clouds.15 mph70%29.92 "HgN/A
11:00 AM88 °FScattered clouds.17 mph70%29.95 "HgN/A
10:00 AM88 °FScattered clouds.17 mph70%29.95 "HgN/A
8:00 AM84 °FPartly sunny.16 mph79%29.95 "HgN/A
7:00 AM82 °FPassing clouds.14 mph84%29.92 "HgN/A
5:00 AM82 °FSprinkles. Passing clouds.15 mph84%29.86 "HgN/A
Weather by CustomWeather, © 2014

See weather overviewHow to use our weather pages